Wind_Speed
17 16 16 17 18 19 20 20 21 22 23 25 27 29 29 33 34 13 11 2 4 9 8 7 10 11 9 13 8 9 12 11 2 6 3 4 8 3 6 14 4 9 10 11 12
18 18 18 19 21 21 20 21 21 22 24 25 27 29 29 33 26 17 7 5 7 13 8 10 10 8 11 8 5 9 13 5 9 10 12 8 3 6 5 6 8 2 6 11 9
18 21 21 22 24 22 21 22 22 22 24 25 27 28 29 27 15 7 9 6 9 13 10 10 9 9 12 8 10 13 12 6 8 8 11 8 10 3 8 14 15 13 6 10 11
17 17 17 18 18 20 21 23 24 23 25 26 27 29 29 11 7 5 7 6 10 10 10 11 11 11 12 9 10 10 13 6 10 6 9 9 8 9 4 10 12 12 2 10 8
16 17 19 19 18 19 21 23 26 25 25 26 26 26 18 8 13 1 8 8 11 12 12 11 12 11 13 5 6 12 14 6 6 6 7 4 4 6 4 9 12 10 4 8 7
16 17 18 20 20 19 20 20 22 27 26 25 25 25 11 17 4 5 6 9 13 16 14 11 9 5 11 8 10 10 9 9 7 9 6 10 4 9 11 5 8 8 9 6 11
18 18 18 19 22 20 21 23 23 24 26 25 25 15 12 21 7 7 8 11 12 15 11 11 8 10 6 11 5 12 14 14 12 10 9 5 10 30 7 4 11 6 5 6 9
18 19 19 18 21 23 22 23 24 24 24 24 20 11 9 10 8 14 14 13 11 12 10 5 8 11 10 9 12 14 18 9 6 20 4 8 6 34 8 3 12 12 7 7 8
19 19 19 20 20 22 24 26 23 23 22 15 4 10 13 5 13 18 18 18 16 13 10 8 10 14 11 11 16 16 6 16 15 3 4 7 5 2 7 3 10 11 11 9 10
19 19 19 17 19 23 25 22 20 22 4 5 9 7 11 8 6 11 20 21 15 12 11 11 10 13 13 13 13 4 15 5 10 8 8 12 12 6 8 5 5 13 15 15 17
22 17 18 19 19 21 22 13 7 7 10 11 4 13 6 6 5 11 18 20 17 15 16 16 12 15 16 14 18 10 12 9 8 5 5 13 13 7 10 8 9 8 17 18 16
18 17 15 17 18 19 15 7 8 6 12 18 22 23 28 10 6 13 21 18 19 19 18 13 15 16 6 9 10 11 14 11 12 4 3 12 13 8 13 12 14 12 13 16 20
19 19 15 15 18 19 15 13 8 7 9 16 21 23 23 23 15 15 20 23 23 22 19 18 14 10 6 9 11 14 13 11 15 5 10 13 13 12 14 13 12 15 14 17 17
20 20 18 14 14 10 14 7 7 6 7 14 8 9 13 13 14 28 26 23 19 23 22 18 18 8 12 13 11 15 10 9 12 10 3 12 6 16 15 14 15 15 16 17 20
21 19 18 12 20 9 7 2 2 8 7 6 10 4 6 17 5 23 30 25 26 21 16 19 17 12 15 14 12 13 1 8 11 12 15 9 8 11 11 14 17 17 19 19 19
21 19 18 15 18 22 17 11 8 8 15 7 8 9 10 18 20 5 27 25 20 21 20 20 15 15 17 13 10 3 7 10 11 12 10 11 10 9 7 6 4 11 19 19 20
22 20 20 18 17 12 17 10 8 16 9 16 9 9 13 11 17 17 28 27 23 23 22 21 15 15 5 11 10 11 11 8 6 7 10 7 5 7 11 4 1 4 4 16 20
22 21 21 22 24 20 15 9 17 22 28 4 4 9 11 10 17 18 24 23 27 25 15 17 20 21 14 17 13 16 15 7 6 3 6 5 6 8 4 2 4 5 6 6 13
24 21 23 22 25 15 5 15 24 30 18 32 13 6 10 12 9 19 25 26 28 26 21 19 22 24 18 15 15 13 16 13 9 4 7 8 8 10 8 4 4 6 3 8 10
26 18 25 22 20 14 6 17 28 25 27 12 24 14 11 12 11 13 22 24 26 29 23 8 15 12 13 11 12 9 13 9 8 10 10 11 12 9 9 7 5 4 4 2 2
24 4 13 25 20 7 8 18 31 25 18 22 16 14 19 7 15 15 12 11 25 26 23 18 12 15 13 17 17 12 11 10 11 9 6 9 5 10 4 2 4 4 2 2 1
11 5 22 32 10 4 13 31 28 27 29 21 19 16 18 13 11 14 14 19 12 22 26 23 11 11 17 17 20 18 19 18 10 13 8 11 12 15 9 11 6 6 6 4 2
5 4 24 37 11 14 31 37 28 29 29 23 16 16 9 10 7 16 18 10 7 22 23 20 14 13 15 13 7 12 17 14 16 13 14 10 8 11 7 7 8 10 10 5 7
6 7 7 13 17 27 33 31 28 33 33 25 21 18 15 11 10 3 9 1 8 14 12 16 16 19 15 17 15 19 19 19 18 12 13 16 18 17 12 10 18 10 11 9 6
8 10 16 13 20 27 23 25 32 32 30 29 26 24 18 11 12 11 4 5 3 2 5 15 23 19 22 18 14 17 18 20 20 19 19 17 19 18 13 9 11 12 7 4 6
8 11 16 15 25 29 26 27 29 31 30 34 24 25 18 18 12 12 9 6 3 5 10 17 16 22 19 18 18 17 15 17 17 17 18 19 20 15 15 10 12 11 11 8 7
22 27 11 17 22 20 24 28 33 28 29 30 28 22 23 19 9 11 8 2 1 9 10 12 15 15 16 18 19 16 17 17 18 17 14 17 16 16 14 11 13 13 14 5 6
Wind_Direction
312 317 312 315 320 318 322 325 330 332 334 336 338 337 337 331 326 304 264 123 191 193 176 194 215 223 234 250 253 260 264 276 269 291 303 29 353 81 315 288 346 4 1 82 141
306 310 307 312 312 312 311 316 322 326 330 333 335 334 337 332 317 282 235 240 204 185 209 211 216 213 231 235 226 253 282 357 20 336 337 311 309 315 279 238 259 167 97 109 147
298 297 301 301 303 309 312 307 310 318 324 329 331 331 335 331 294 105 183 193 181 183 244 252 275 236 255 241 238 263 280 356 321 9 311 301 260 309 300 292 29 343 153 162 174
323 327 317 308 307 300 305 311 309 311 315 322 327 329 332 323 308 94 177 184 190 201 247 234 236 227 242 236 232 265 263 303 303 318 295 294 330 293 284 5 349 296 118 147 192
315 318 323 322 314 308 300 303 308 311 313 317 321 329 338 277 271 206 216 221 205 213 231 225 235 237 264 249 275 249 268 307 293 259 258 309 271 312 328 18 4 14 116 100 113
312 314 318 322 317 314 307 302 303 305 312 313 315 322 282 274 283 269 217 194 203 209 219 231 248 303 296 278 283 327 278 271 219 219 219 274 247 255 93 97 47 26 49 102 111
306 307 309 316 320 313 312 305 298 300 307 308 310 302 263 253 265 242 214 205 210 212 233 223 267 263 301 262 266 274 253 206 220 229 270 271 339 317 98 68 97 79 86 97 118
299 306 308 308 312 316 310 305 298 298 300 303 305 259 261 264 238 221 225 222 219 216 246 290 259 270 277 299 265 250 234 270 197 271 199 263 154 243 145 128 86 107 99 89 145
292 300 304 308 307 316 310 308 299 295 295 294 258 239 267 191 225 222 220 217 204 218 230 249 243 252 249 244 254 226 202 254 207 222 266 258 322 262 124 145 113 109 84 77 115
293 291 299 309 312 315 312 314 302 283 276 224 251 259 243 242 192 213 202 212 207 209 215 224 230 239 225 245 248 227 252 240 289 183 235 262 270 122 149 167 145 130 118 116 131
287 283 291 300 308 314 324 324 231 202 213 245 175 250 283 260 211 214 187 199 214 198 215 201 223 232 243 221 264 318 298 283 251 305 292 270 272 196 161 184 137 161 147 157 161
282 289 290 301 297 302 301 272 325 332 289 269 250 253 256 265 278 216 176 195 204 215 217 214 232 252 261 288 249 264 261 265 282 272 287 274 264 305 162 188 167 179 170 170 167
282 280 288 298 299 292 248 257 295 297 267 278 243 235 229 219 237 214 191 205 204 216 214 229 234 230 211 223 247 246 261 270 277 255 235 257 263 243 167 189 188 184 178 175 177
271 280 275 295 290 272 250 249 250 238 274 265 204 237 218 216 228 229 191 211 220 219 223 222 242 204 228 242 234 256 229 259 279 256 321 268 255 256 176 192 192 195 193 184 181
262 268 277 252 306 273 36 162 219 210 279 81 143 119 178 190 240 199 212 211 220 216 217 223 229 207 231 235 242 256 4 256 253 274 286 216 253 176 192 188 194 200 200 196 195
258 254 263 256 254 259 284 306 236 227 238 203 151 189 182 216 252 232 198 210 219 225 226 232 201 215 231 230 231 253 237 241 250 254 258 219 252 155 181 225 158 194 193 207 198
251 248 246 241 244 253 260 278 211 225 211 243 200 191 205 198 222 234 190 197 202 210 210 218 200 211 221 209 188 207 221 230 227 223 240 254 246 252 272 147 74 303 210 198 206
242 242 241 235 238 266 301 210 225 222 228 101 192 182 208 204 213 198 202 204 211 208 207 209 206 204 187 229 187 211 225 236 226 246 236 270 242 232 33 38 243 260 265 237 217
235 232 234 227 233 248 260 220 216 223 211 226 176 186 212 222 218 216 218 213 205 206 222 202 220 195 203 209 245 217 218 256 282 269 291 279 238 245 237 251 258 259 262 227 224
216 226 228 217 220 221 248 245 234 229 239 242 231 230 229 202 201 222 215 217 212 214 218 221 217 191 175 214 221 253 232 213 227 258 249 253 250 267 174 208 151 274 46 105 246
206 216 206 202 192 213 230 234 236 248 235 214 227 236 233 195 204 226 232 219 212 209 216 227 229 181 165 207 205 200 235 234 257 243 252 264 285 24 359 204 270 269 232 7 156
190 209 176 178 191 200 226 228 237 231 252 240 231 252 236 221 220 222 239 214 217 219 206 222 207 216 212 219 225 223 210 225 236 246 232 250 269 321 293 263 305 262 266 254 272
178 179 179 178 201 203 228 231 234 248 248 219 206 235 214 205 251 206 237 276 193 222 210 207 224 222 198 193 218 244 240 235 237 247 264 232 256 275 262 267 226 263 273 236 223
161 174 185 203 216 209 219 218 223 232 256 242 213 228 219 221 222 288 238 259 280 240 211 219 214 222 220 212 204 216 236 232 238 240 247 254 270 275 275 220 261 248 246 243 246
190 209 183 193 208 225 225 216 214 215 231 251 234 222 213 208 215 216 237 237 266 252 247 221 222 221 234 244 235 220 212 227 238 242 244 254 266 267 267 292 296 304 273 276 251
184 204 195 211 202 220 221 229 216 219 210 226 235 225 226 226 200 207 255 6 329 210 226 216 224 231 231 235 246 242 239 244 248 238 246 254 254 267 289 289 280 274 277 257 259
207 205 190 205 195 205 220 217 225 216 221 222 227 240 220 235 109 84 93 180 343 325 247 222 222 227 234 234 236 236 238 250 248 243 251 256 268 274 276 287 288 278 266 231 274
Height
842 840 838 837 835 834 832 829 826 823 819 816 811 807 802 796 788 787 780 778 777 778 778 778 777 772 769 763 761 756 762 759 748 748 771 739 748 745 746 741 732 736 738 748 757
840 838 836 834 834 832 830 827 824 821 818 815 810 806 800 794 787 780 777 776 776 777 778 775 770 768 763 759 758 760 753 749 739 739 744 743 745 746 746 738 738 743 748 758 762
839 836 835 832 831 830 828 825 823 820 817 814 809 805 799 794 783 765 773 775 775 776 777 773 769 765 764 755 756 750 756 745 743 742 743 742 740 740 744 736 732 744 744 757 763
837 835 832 830 828 827 826 824 821 818 815 812 808 804 797 794 784 770 773 774 776 776 776 772 768 767 764 760 749 762 744 746 743 743 744 738 736 740 740 744 747 743 742 757 763
835 833 831 828 825 823 822 821 820 817 813 810 807 803 797 787 776 772 773 773 774 776 773 768 765 762 763 753 751 756 748 743 741 744 742 741 741 743 738 746 750 747 755 763 767
833 831 829 827 824 820 819 817 816 814 811 808 806 803 800 789 771 772 773 772 772 774 769 764 760 757 759 756 755 746 747 742 741 739 740 746 739 739 742 748 754 756 761 768 774
831 829 827 824 823 818 815 814 812 809 808 805 804 803 794 776 768 770 772 770 769 769 764 763 762 761 752 757 746 748 753 742 741 735 738 738 754 776 743 743 751 760 765 770 776
828 827 825 822 821 817 812 809 808 806 802 802 800 801 782 765 765 766 769 768 768 767 766 763 764 761 759 750 753 754 745 757 774 745 733 742 777 770 743 740 749 759 768 773 777
826 824 823 821 818 813 809 805 803 801 798 798 797 797 774 761 760 759 764 763 764 766 766 765 764 761 754 763 759 745 763 763 748 733 734 742 743 739 737 740 749 753 763 768 780
823 822 821 818 815 811 806 800 798 796 795 795 794 796 767 753 749 753 756 761 758 762 763 764 761 762 756 757 767 754 762 746 749 754 736 739 737 727 734 740 742 750 762 774 775
820 819 819 816 813 810 806 799 795 790 789 773 767 766 758 755 752 752 750 758 755 757 764 755 762 762 746 741 741 741 745 746 739 733 740 739 733 730 733 739 747 750 756 767 774
816 817 816 813 812 809 808 800 794 797 782 769 764 762 759 758 753 744 746 755 756 758 751 752 761 742 735 738 745 749 751 748 736 729 744 737 733 727 727 734 740 748 750 754 762
813 813 813 812 809 806 803 795 797 797 782 757 747 749 748 756 754 737 740 742 748 752 747 752 742 734 746 748 755 749 750 748 747 734 733 737 737 725 720 727 731 738 741 748 754
809 810 812 811 810 799 794 793 796 797 777 743 742 736 739 743 745 733 731 737 739 745 742 743 733 744 748 750 745 754 734 744 744 745 765 729 759 740 719 727 729 733 735 740 748
806 807 809 810 805 798 793 796 796 795 778 723 732 731 730 735 720 722 723 731 738 738 739 741 738 743 750 746 739 746 738 743 741 741 735 730 740 722 713 721 720 723 727 730 737
802 803 805 806 805 799 796 797 797 785 764 726 725 732 738 735 729 713 721 724 724 732 729 729 721 730 734 731 735 735 745 744 741 741 757 734 734 733 719 716 715 707 716 722 726
796 799 801 801 799 798 798 799 783 763 721 720 724 725 730 731 734 722 723 728 732 744 741 736 730 728 730 740 736 742 749 763 767 757 758 734 738 722 715 706 711 711 709 710 718
791 794 795 795 796 797 798 790 757 724 724 708 715 722 731 725 729 722 722 727 721 722 728 741 746 729 726 732 739 740 739 753 775 767 748 736 743 722 703 704 706 708 707 707 709
787 788 788 789 792 796 798 767 730 714 702 716 713 723 726 726 724 724 720 719 714 710 726 729 731 710 716 723 724 730 741 724 743 740 752 733 717 706 702 707 708 705 706 707 709
780 782 779 785 789 793 789 762 724 710 707 710 715 710 719 724 731 724 716 704 709 705 702 711 730 711 719 718 720 728 723 749 742 767 775 735 727 723 713 712 709 707 706 706 710
774 774 769 779 787 788 775 753 732 712 704 709 712 712 711 713 725 725 711 702 699 702 701 706 719 719 718 729 727 734 735 730 725 742 757 756 734 716 708 706 710 707 707 707 706
763 761 758 770 777 773 769 736 737 721 711 706 705 704 708 709 716 726 719 701 697 694 709 704 716 723 724 711 707 707 722 724 742 745 734 740 736 701 705 704 705 706 705 703 705
751 756 754 756 755 754 741 730 738 727 714 706 708 709 707 714 724 710 712 700 695 697 699 704 718 732 724 718 714 720 713 712 716 721 736 755 744 700 700 705 704 705 702 702 704
743 746 742 745 733 724 718 724 729 729 721 704 704 706 712 717 715 713 716 707 704 697 700 702 708 717 724 714 712 725 718 712 717 733 737 732 723 707 701 703 701 696 695 699 699
723 710 704 719 725 714 715 709 716 718 720 712 704 700 707 716 715 715 713 713 711 711 700 702 712 708 704 698 697 701 707 712 716 716 727 722 716 705 697 695 693 691 690 695 698
704 691 696 693 714 717 712 709 705 708 710 708 704 701 701 706 707 711 713 718 710 709 705 698 710 707 708 701 699 705 700 702 702 702 706 707 708 689 687 687 692 694 695 699 701
691 688 687 686 693 710 697 702 699 697 697 700 708 706 705 702 702 708 715 721 719 716 708 703 706 708 718 701 703 716 706 702 699 696 701 712 700 689 689 689 691 691 692 698 704